Lafayette, IN

5:17 AM EDT on April 27, 2018 (GMT -0400)
Purdue Univ

Weather History for KLAF - June, 2013

Change the Weather History Date:

Saturday, June 22, 2013

  Actual Average Record
Temperature  
Mean Temperature 74 °F 73 °F  
Max Temperature 84 °F 84 °F 98 °F (1988)
Min Temperature 64 °F 62 °F 35 °F (1992)
Degree Days  
Heating Degree Days 0 0  
Month to date heating degree days 18 22  
Since 1 June heating degree days 18 22  
Since 1 July heating degree days 5911 5672  
Cooling Degree Days 9 9  
Month to date cooling degree days 109 143  
Year to date cooling degree days 210 220  
Since 1 June cooling degree days 109 143  
Growing Degree Days 25 (Base 50)    
Moisture  
Dew Point 67 °F    
Average Humidity 85    
Maximum Humidity 100    
Minimum Humidity 69    
Precipitation  
Precipitation 0.09 in 0.13 in 1.09 in (1952)
Month to date precipitation 2.44 3.01  
Year to date precipitation 21.06 17.03  
Sea Level Pressure  
Sea Level Pressure 30.07 in    
Wind  
Wind Speed 4 mph (SW)    
Max Wind Speed 28 mph    
Max Gust Speed 41 mph    
Visibility 9 miles    
Events Rain , Thunderstorm    
T = Trace of Precipitation, MM = Missing Value Source: NWS Daily Summary

Daily Weather History Graph

Daily Weather History Graph

Search for Another Location

Airport or City:

Astronomy

Jun. 22, 2013 Rise Set
Actual Time 6:18 AM EDT 9:21 PM EDT
Civil Twilight 5:44 AM EDT 9:54 PM EDT
Nautical Twilight 5:02 AM EDT 10:37 PM EDT
Astronomical Twilight 4:12 AM EDT 11:26 PM EDT
Moon 8:35 PM EDT (6/22) 5:30 AM EDT (6/22)
Length of Visible Light 16h 10m
Length of Day
15h 03m
Waxing Gibbous, 99% of the Moon is Illuminated
Jun 22
Waxing Gibbous
Jun 23
Full
Jun 30
Last Quarter
Jul 8
New
Jul 15
First Quarter

Hourly Weather History & Observations

Time (EDT) Temp. Heat Index Dew Point Humidity Pressure Visibility Wind Dir Wind Speed Gust Speed Precip Events Conditions
12:54 AM 68.0 °F - 66.0 °F 93% 30.11 in 10.0 mi Calm Calm - N/A   Clear
1:54 AM 68.0 °F - 64.9 °F 90% 30.10 in 10.0 mi Calm Calm - N/A   Clear
2:54 AM 66.9 °F - 64.9 °F 93% 30.06 in 10.0 mi Calm Calm - N/A   Clear
3:54 AM 68.0 °F - 64.9 °F 90% 30.04 in 10.0 mi Calm Calm - N/A   Clear
4:54 AM 70.0 °F - 66.9 °F 90% 30.05 in 9.0 mi Calm Calm - N/A   Clear
5:54 AM 69.1 °F - 66.0 °F 90% 30.06 in 7.0 mi Calm Calm - N/A   Clear
6:54 AM 71.1 °F - 68.0 °F 90% 30.08 in 6.0 mi Calm Calm - N/A   Clear
7:54 AM 73.0 °F - 69.1 °F 87% 30.07 in 7.0 mi SSW 5.8 mph - N/A   Clear
8:54 AM 75.9 °F - 69.1 °F 79% 30.09 in 10.0 mi SW 8.1 mph - N/A   Clear
9:54 AM 79.0 °F - 71.1 °F 77% 30.09 in 10.0 mi SW 6.9 mph - N/A   Clear
10:54 AM 82.0 °F 86.3 °F 71.1 °F 69% 30.09 in 10.0 mi SW 6.9 mph - N/A   Clear
11:54 AM 82.9 °F 88.8 °F 73.0 °F 72% 30.10 in 10.0 mi Variable 3.5 mph - N/A   Mostly Cloudy
12:54 PM 84.0 °F 90.2 °F 73.0 °F 69% 30.09 in 10.0 mi SW 4.6 mph - N/A   Scattered Clouds
1:54 PM 81.0 °F 85.2 °F 72.0 °F 74% 30.09 in 10.0 mi West 19.6 mph 41.4 mph N/A Thunderstorm Partly Cloudy
2:12 PM 73.4 °F - 64.4 °F 73% 30.13 in 10.0 mi WSW 13.8 mph 27.6 mph N/A Thunderstorm Thunderstorm
2:25 PM 71.6 °F - 64.4 °F 78% 30.15 in 10.0 mi SW 15.0 mph 27.6 mph N/A Thunderstorm Thunderstorm
2:54 PM 68.0 °F - 66.0 °F 93% 30.10 in 5.0 mi SSE 3.5 mph - 0.06 in Rain , Thunderstorm Light Rain
3:06 PM 68.0 °F - 66.2 °F 94% 30.09 in 10.0 mi SSE 6.9 mph - 0.00 in Rain Light Rain
3:54 PM 70.0 °F - 69.1 °F 97% 30.04 in 6.0 mi Calm Calm - 0.03 in Rain Light Rain
4:54 PM 73.0 °F - 68.0 °F 84% 30.00 in 10.0 mi WNW 5.8 mph - 0.00 in Rain Light Rain
5:54 PM 73.0 °F - 69.1 °F 87% 30.01 in 10.0 mi Calm Calm - 0.00 in   Scattered Clouds
6:54 PM 73.9 °F - 66.9 °F 79% 30.05 in 10.0 mi SW 3.5 mph - N/A   Clear
7:54 PM 73.0 °F - 66.9 °F 81% 30.04 in 10.0 mi SW 3.5 mph - N/A   Clear
8:54 PM 72.0 °F - 64.9 °F 78% 30.04 in 10.0 mi SW 4.6 mph - N/A   Clear
9:54 PM 71.1 °F - 64.0 °F 78% 30.04 in 10.0 mi SSW 4.6 mph - N/A   Clear
10:54 PM 68.0 °F - 64.9 °F 90% 30.04 in 10.0 mi Calm Calm - N/A   Clear
11:54 PM 64.9 °F - 64.0 °F 97% 30.03 in 10.0 mi NE 3.5 mph - N/A   Clear